Weather History for Joplin, MO

Change the Weather History Date:

Tuesday, January 1, 2013

  Actual Average Record
Temperature  
Mean Temperature 25 °F 35 °F  
Max Temperature 34 °F 45 °F 75 °F (2006)
Min Temperature 15 °F 25 °F -2 °F (1974)
Degree Days  
Heating Degree Days 40 30  
Month to date heating degree days 40 30  
Since 1 July heating degree days 1537 1647  
Cooling Degree Days 0 0  
Month to date cooling degree days 0 0  
Year to date cooling degree days 0 0  
Moisture  
Dew Point 23 °F    
Average Humidity 87    
Maximum Humidity 100    
Minimum Humidity 74    
Precipitation  
Precipitation T in 0.07 in 0.24 in (1965)
Month to date precipitation T 0.07  
Year to date precipitation T 0.07  
Snow  
Snow T in - - ()
Month to date snowfall T  
Snow Depth 0.00 in    
Sea Level Pressure  
Sea Level Pressure 30.22 in    
Wind  
Wind Speed 7 mph (NNE)    
Max Wind Speed 15 mph    
Max Gust Speed 21 mph    
Visibility 7 miles    
Events Rain    
T = Trace of Precipitation, MM = Missing Value Source: NWS Daily Summary

Daily Weather History Graph

Daily Weather History Graph

Search for Another Location

Airport:

Trip Planner

Search our weather history database for the weather conditions in past years. The results will help you decide how hot, cold, wet, or windy it might be!

Date:

Astronomy

Jan. 01, 2013 Rise Set
Actual Time 7:31 AM CST 5:11 PM CST
Civil Twilight 7:02 AM CST 5:40 PM CST
Nautical Twilight 6:30 AM CST 6:13 PM CST
Astronomical Twilight 5:58 AM CST 6:44 PM CST
Moon 9:37 PM CST (1/1) 9:50 AM CST (1/1)
Length of Visible Light 10h 38m
Length of Day
9h 40m
Waning Gibbous, 83% of the Moon is Illuminated
Jan 1
Waning Gibbous
Jan 4
Last Quarter
Jan 11
New
Jan 18
First Quarter
Jan 26
Full

Hourly Weather History & Observations

Time (CST) Temp. Windchill Dew Point Humidity Pressure Visibility Wind Dir Wind Speed Gust Speed Precip Events Conditions
12:53 AM 33.1 °F 27.7 °F 33.1 °F 100% 30.11 in 2.5 mi NNE 5.8 mph - 0.00 in Rain Light Rain
1:53 AM 33.1 °F 24.9 °F 33.1 °F 100% 30.09 in 2.5 mi NNE 10.4 mph - 0.00 in Rain Light Rain
2:41 AM 30.2 °F 21.3 °F 30.2 °F 100% 30.08 in 1.8 mi NNE 10.4 mph - 0.00 in Rain Light Freezing Rain
2:53 AM 30.0 °F 21.7 °F 30.0 °F 100% 30.12 in 1.8 mi North 9.2 mph - 0.00 in Rain Light Freezing Rain
3:02 AM 30.2 °F 20.8 °F 30.2 °F 100% 30.10 in 2.0 mi North 11.5 mph - 0.00 in Rain Light Freezing Rain
3:28 AM 28.4 °F 18.0 °F 28.4 °F 100% 30.09 in 3.0 mi NNE 12.7 mph 19.6 mph 0.00 in Rain Light Freezing Rain
3:53 AM 28.9 °F 19.2 °F 28.0 °F 96% 30.11 in 5.0 mi NNE 11.5 mph - 0.00 in Rain Light Freezing Rain
4:53 AM 28.0 °F 21.7 °F 27.0 °F 96% 30.14 in 5.0 mi NNE 5.8 mph - 0.00 in Rain Light Freezing Rain
5:53 AM 27.0 °F 18.7 °F 26.1 °F 96% 30.18 in 5.0 mi North 8.1 mph - 0.00 in   Overcast
6:53 AM 27.0 °F 20.5 °F 25.0 °F 92% 30.19 in 5.0 mi North 5.8 mph - N/A   Overcast
7:53 AM 26.1 °F 16.2 °F 24.1 °F 92% 30.21 in 6.0 mi North 10.4 mph - N/A   Overcast
8:53 AM 25.0 °F 14.8 °F 21.9 °F 88% 30.22 in 8.0 mi NNE 10.4 mph - N/A   Overcast
9:53 AM 25.0 °F 14.8 °F 21.9 °F 88% 30.25 in 7.0 mi North 10.4 mph - N/A   Overcast
10:53 AM 26.1 °F 17.6 °F 21.9 °F 84% 30.27 in 7.0 mi NNE 8.1 mph - N/A   Overcast
11:53 AM 25.0 °F 14.8 °F 21.9 °F 88% 30.26 in 7.0 mi North 10.4 mph - N/A   Overcast
12:53 PM 26.1 °F 15.6 °F 21.9 °F 84% 30.25 in 7.0 mi North 11.5 mph - N/A   Overcast
1:53 PM 26.1 °F 16.8 °F 21.9 °F 84% 30.25 in 8.0 mi North 9.2 mph - N/A   Overcast
2:53 PM 26.1 °F 17.6 °F 21.9 °F 84% 30.26 in 7.0 mi North 8.1 mph - N/A   Overcast
3:53 PM 25.0 °F 14.8 °F 21.0 °F 85% 30.27 in 9.0 mi North 10.4 mph - 0.00 in   Overcast
4:12 PM 24.8 °F 16.1 °F 19.4 °F 80% 30.24 in 10.0 mi North 8.1 mph - N/A   Overcast
4:53 PM 24.1 °F 16.0 °F 18.0 °F 77% 30.27 in 10.0 mi NNE 6.9 mph - N/A   Mostly Cloudy
5:53 PM 21.0 °F 13.4 °F 17.1 °F 85% 30.29 in 10.0 mi North 5.8 mph - N/A   Clear
6:53 PM 21.0 °F - 17.1 °F 85% 30.30 in 10.0 mi Calm Calm - N/A   Clear
7:53 PM 19.0 °F 11.1 °F 16.0 °F 88% 30.31 in 10.0 mi North 5.8 mph - N/A   Clear
8:53 PM 19.0 °F 13.9 °F 16.0 °F 88% 30.30 in 10.0 mi North 3.5 mph - N/A   Clear
9:53 PM 18.0 °F - 15.1 °F 88% 30.30 in 9.0 mi Calm Calm - N/A   Clear
10:53 PM 16.0 °F - 14.0 °F 92% 30.30 in 8.0 mi Calm Calm - N/A   Clear
11:53 PM 16.0 °F - 12.9 °F 88% 30.29 in 8.0 mi Calm Calm - N/A   Clear